Waterford Township, MI

9:16 AM EDT on September 27, 2016 (GMT -0400)
Oakland County International

Weather History for KPTK - December, 2013

Change the Weather History Date:

Tuesday, December 24, 2013

  Actual Average Record
Temperature  
Mean Temperature 12 °F -  
Max Temperature 18 °F 29 °F 57 °F (2015)
Min Temperature 5 °F 17 °F 1 °F (2004)
Degree Days  
Heating Degree Days 54    
Moisture  
Dew Point 7 °F    
Average Humidity 78    
Maximum Humidity 86    
Minimum Humidity 61    
Precipitation  
Precipitation 0.00 in - - ()
Snow  
Snow 0.00 in - - ()
Snow Depth 3.00 in    
Sea Level Pressure  
Sea Level Pressure 30.37 in    
Wind  
Wind Speed 10 mph (WNW)    
Max Wind Speed 17 mph    
Max Gust Speed 22 mph    
Visibility 6 miles    
Events Snow    
Averages and records for this station are not official NWS values.
T = Trace of Precipitation, MM = Missing Value Source: NWS Daily Summary

Daily Weather History Graph

Daily Weather History Graph

Search for Another Location

Airport or City:

Trip Planner

Search our weather history database for the weather conditions in past years. The results will help you decide how hot, cold, wet, or windy it might be!

Date:

Astronomy

Dec. 24, 2013 Rise Set
Actual Time 8:02 AM EST 5:04 PM EST
Civil Twilight 7:29 AM EST 5:37 PM EST
Nautical Twilight 6:54 AM EST 6:12 PM EST
Astronomical Twilight 6:19 AM EST 6:47 PM EST
Moon No Moon Rise 11:47 AM EST (12/24)
Length of Visible Light 10h 07m
Length of Day
9h 02m
Waning Gibbous, 59% of the Moon is Illuminated
Dec 24
Waning Gibbous
Dec 25
Last Quarter
Jan 1
New
Jan 7
First Quarter
Jan 15
Full

Hourly Weather History & Observations

Time (EST) Temp. Windchill Dew Point Humidity Pressure Visibility Wind Dir Wind Speed Gust Speed Precip Events Conditions
12:53 AM 18.0 °F 6.1 °F 10.0 °F 71% 30.28 in 10.0 mi West 10.4 mph - N/A   Overcast
1:53 AM 17.1 °F 5.0 °F 10.0 °F 74% 30.29 in 6.0 mi West 10.4 mph - 0.00 in Snow Light Snow
2:22 AM 17.6 °F 6.4 °F 10.4 °F 73% 30.24 in 2.5 mi West 9.2 mph - 0.00 in Snow Light Snow
2:46 AM 17.6 °F 5.0 °F 10.4 °F 73% 30.25 in 3.0 mi WSW 11.5 mph - 0.00 in Snow Light Snow
2:53 AM 17.1 °F 5.8 °F 10.9 °F 77% 30.30 in 2.5 mi West 9.2 mph - 0.00 in Snow Light Snow
3:04 AM 15.8 °F 4.2 °F 12.2 °F 86% 30.26 in 1.5 mi WSW 9.2 mph - 0.00 in Snow Light Snow
3:13 AM 15.8 °F 4.2 °F 12.2 °F 86% 30.26 in 3.0 mi WSW 9.2 mph - 0.00 in Snow Light Snow
3:30 AM 15.8 °F 2.7 °F 10.4 °F 79% 30.26 in 2.5 mi West 11.5 mph - 0.00 in Snow Light Snow
3:40 AM 15.8 °F 1.4 °F 10.4 °F 79% 30.26 in 3.0 mi West 13.8 mph - 0.00 in Snow Light Snow
3:49 AM 15.8 °F 2.1 °F 10.4 °F 79% 30.26 in 2.5 mi West 12.7 mph - 0.00 in Snow Light Snow
3:53 AM 16.0 °F 1.1 °F 10.9 °F 81% 30.31 in 2.0 mi West 15.0 mph - 0.00 in Snow Light Snow
4:11 AM 15.8 °F 0.9 °F 10.4 °F 79% 30.26 in 2.5 mi West 15.0 mph - 0.00 in Snow Light Snow
4:26 AM 15.8 °F 2.1 °F 10.4 °F 79% 30.26 in 3.0 mi West 12.7 mph - 0.00 in Snow Light Snow
4:53 AM 15.1 °F -0.1 °F 10.0 °F 80% 30.31 in 5.0 mi West 15.0 mph - 0.00 in Snow Light Snow
5:11 AM 15.8 °F 5.1 °F 10.4 °F 79% 30.26 in 2.5 mi West 8.1 mph - 0.00 in Snow Light Snow
5:22 AM 15.8 °F 4.2 °F 10.4 °F 79% 30.27 in 3.0 mi West 9.2 mph - 0.00 in Snow Light Snow
5:53 AM 14.0 °F 1.2 °F 10.0 °F 84% 30.33 in 3.0 mi West 10.4 mph - 0.00 in Snow Light Snow
6:02 AM 14.0 °F -0.2 °F 10.4 °F 86% 30.28 in 2.0 mi West 12.7 mph 19.6 mph 0.00 in Snow Light Snow
6:12 AM 14.0 °F -0.2 °F 10.4 °F 86% 30.28 in 1.5 mi WNW 12.7 mph - 0.00 in Snow Light Snow
6:25 AM 12.2 °F -1.8 °F 8.6 °F 85% 30.29 in 1.2 mi WNW 11.5 mph - 0.00 in Snow Light Snow
6:43 AM 12.2 °F -1.0 °F 8.6 °F 85% 30.30 in 2.0 mi NW 10.4 mph - 0.00 in Snow Light Snow
6:53 AM 12.0 °F -1.3 °F 6.1 °F 77% 30.35 in 3.0 mi NW 10.4 mph - 0.00 in Snow Light Snow
7:04 AM 10.4 °F -2.4 °F 6.8 °F 85% 30.30 in 4.0 mi NW 9.2 mph - 0.00 in Snow Light Snow
7:23 AM 10.4 °F -2.4 °F 6.8 °F 85% 30.31 in 2.5 mi NW 9.2 mph - 0.00 in Snow Light Snow
7:45 AM 10.4 °F -4.8 °F 3.2 °F 73% 30.33 in 2.5 mi WNW 12.7 mph - 0.00 in Snow Light Snow
7:53 AM 9.0 °F -5.1 °F 3.9 °F 80% 30.39 in 2.5 mi WNW 10.4 mph - 0.00 in Snow Light Snow
8:01 AM 8.6 °F -7.0 °F 3.2 °F 79% 30.33 in 7.0 mi WNW 12.7 mph - 0.00 in Snow Light Snow
8:53 AM 8.1 °F -7.7 °F 3.0 °F 80% 30.41 in 10.0 mi WNW 12.7 mph - 0.00 in   Mostly Cloudy
9:53 AM 9.0 °F -5.1 °F 3.0 °F 77% 30.43 in 10.0 mi NW 10.4 mph - 0.00 in   Partly Cloudy
10:53 AM 10.9 °F -4.7 °F 3.0 °F 70% 30.45 in 10.0 mi WNW 13.8 mph - N/A   Partly Cloudy
11:53 AM 12.9 °F -1.6 °F 3.9 °F 67% 30.44 in 10.0 mi NW 12.7 mph - N/A   Partly Cloudy
12:53 PM 12.9 °F -3.9 °F 5.0 °F 71% 30.45 in 10.0 mi WNW 17.3 mph 21.9 mph N/A   Partly Cloudy
1:53 PM 14.0 °F -0.8 °F 3.0 °F 62% 30.45 in 10.0 mi NW 13.8 mph - N/A   Partly Cloudy
2:53 PM 15.1 °F -0.6 °F 3.9 °F 61% 30.48 in 10.0 mi WNW 16.1 mph - N/A   Partly Cloudy
3:53 PM 14.0 °F 0.5 °F 3.9 °F 64% 30.50 in 10.0 mi NW 11.5 mph - N/A   Scattered Clouds
4:53 PM 12.9 °F 1.6 °F 3.9 °F 67% 30.50 in 10.0 mi NW 8.1 mph - N/A   Scattered Clouds
5:53 PM 10.0 °F - 3.0 °F 73% 30.53 in 10.0 mi Calm Calm - N/A   Scattered Clouds
6:53 PM 10.0 °F - 3.9 °F 76% 30.55 in 10.0 mi Calm Calm - N/A   Partly Cloudy
7:53 PM 9.0 °F - 3.9 °F 80% 30.56 in 10.0 mi Calm Calm - N/A   Mostly Cloudy
8:53 PM 8.1 °F - 3.0 °F 80% 30.54 in 10.0 mi Calm Calm - N/A   Clear
9:53 PM 5.0 °F - -0.0 °F 80% 30.54 in 10.0 mi Calm Calm - N/A   Clear
10:53 PM 6.1 °F - 1.9 °F 83% 30.53 in 9.0 mi Calm Calm - N/A   Scattered Clouds
11:53 PM 5.0 °F - 1.0 °F 84% 30.52 in 8.0 mi Calm Calm - N/A   Partly Cloudy